Regional Weather Roundup
Issued by NWS Nashville, TN

Home | Current Version | Previous Version | Text Only | Print | Product List | Glossary On
Versions: 1 2 3 4 5 6 7 8 9 10 11 12 13 14 15 16 17 18 19 20 21 22 23 24 25 26 27 28 29 30 31 32 33 34 35 36 37 38 39 40 41 42 43 44 45 46 47 48 49 50
843
ASUS44 KOHX 080810
RWROHX
MIDDLE TENNESSEE HOURLY WEATHER ROUNDUP
NATIONAL WEATHER SERVICE NASHVILLE TN
200 AM CST MON FEB 08 2016

NOTE: "FAIR" INDICATES FEW OR NO CLOUDS BELOW 12,000 FEET WITH
NO SIGNIFICANT WEATHER AND/OR OBSTRUCTIONS TO VISIBILITY.

* THESE REPORTS ARE NOT UNDER NWS QUALITY CONTROL AND MAY NOT
  REPORT WEATHER SUCH AS PRECIPITATION AND FOG.


TNZ005>011-023>034-057-059-062>066-078-080-080900
...NORTHERN MIDDLE TENNESSEE...

CITY           SKY/WX    TMP DP  RH WIND       PRES   REMARKS
CLARKSVILLE    CLOUDY    44  31  60 CALM      29.83F
CROSSVILLE     CLEAR     38  22  52 S6        29.81F WCI  33
DICKSON        CLOUDY    43  28  56 W5        29.83F
LEBANON        CLOUDY    42  27  55 SW3       29.81S
LIVINGSTON     CLOUDY    43  23  45 SW9       29.80
NASHVILLE      CLOUDY    47  27  45 W7        29.84F
PORTLAND       CLOUDY   N/A N/A N/A NW15      29.81S
ROCKWOOD       CLOUDY    41  21  44 SW8       29.82F
SMYRNA         CLOUDY    45  30  55 W9        29.85F
SPARTA         MOCLDY    41  27  56 SW7       29.81F
$$
TNZ056-058-060-061-075>077-079-093>097-080900
...SOUTHERN MIDDLE TENNESSEE...

CITY           SKY/WX    TMP DP  RH WIND       PRES   REMARKS
COLUMBIA       MOCLDY    41  34  75 SW5       29.85S
FAYETTEVILLE   MOCLDY    43  28  56 SW8G14    29.85F
LEWISBURG      PTCLDY    45  29  53 W6        29.85F
MCMINNVILLE    PTCLDY    41  27  56 SW12      29.83F
SHELBYVILLE    MOCLDY    45  32  61 SW7       29.85F
TULLAHOMA      CLEAR     39  25  56 SW9       29.84F WCI  33
WINCHESTER     PTCLDY    45  28  53 W9        29.86F
$$


...KEY TO REMARKS...
VSB - VISIBILITY IN MILES
WCI - WIND CHILL INDEX
HX  - HEAT INDEX





USA.gov is the U.S. government's official web portal to all federal, state and local government web resources and services.